DW2802 Ogijares ES current weather conditions

sailwx.info

Wind from 236 at 1 knots gusting 6

Air temperature 32.8° C
Dewpoint 18.5° C

Last reported at 2015-Aug-02 17:46 UTC.
Time now 2015-Aug-02 18:23 UTC

Location: N 37°07' W 003°36'.
View on Google Maps.

See reports from other nearby stations

  
Tides and Currents Weather Stations Pressure Air Temp Water Temp Dewpoint Dewpoint Depression Visibility Wind Speed Wind Dir Waves Ship Positions
date/time (UTC)wind fromknots sea level pressurealtimeterstation pressurevisibilityair tempwater tempwave heightnotes
2015-Aug-02 17:46 236 1 gusting 6 32.8
2015-Aug-02 17:31 249 1 gusting 6 33.3
2015-Aug-02 17:16 273 0 gusting 6 33.3
2015-Aug-02 17:01 236 1 gusting 6 33.3
2015-Aug-02 16:46 237 3 gusting 8 33.3
2015-Aug-02 16:16 244 0 gusting 8 33.3
2015-Aug-02 16:01 247 3 gusting 12 33.3
2015-Aug-02 15:46 268 6 gusting 10 33.3
2015-Aug-02 15:31 281 3 gusting 10 32.8
2015-Aug-02 15:16 265 3 gusting 8 33.3
2015-Aug-02 15:01 242 2 gusting 8 32.8
2015-Aug-02 14:46 207 4 gusting 8 33.3
2015-Aug-02 14:31 248 1 gusting 7 32.8
2015-Aug-02 14:16 320 2 gusting 11 32.2
2015-Aug-02 14:01 229 4 gusting 9 32.2
2015-Aug-02 13:46 229 4 gusting 6 32.2
2015-Aug-02 13:30 292 2 gusting 10 32.2
2015-Aug-02 13:15 254 1 gusting 11 31.7
2015-Aug-02 13:00 254 3 gusting 8 31.1
2015-Aug-02 12:45 228 31.1
2015-Aug-02 12:30 204 4 gusting 9 30.6
2015-Aug-02 12:15 221 6 gusting 9 31.1
2015-Aug-02 12:00 251 0 gusting 6 30.0
2015-Aug-02 11:45 319 3 gusting 8 30.0
2015-Aug-02 11:30 282 1 gusting 8 29.4
2015-Aug-02 11:15 005 29.4
2015-Aug-02 11:00 239 1 gusting 6 28.9
2015-Aug-02 10:45 290 28.9
2015-Aug-02 10:30 304 28.3
2015-Aug-02 10:15 196 27.8
2015-Aug-02 10:00 246 27.2
2015-Aug-02 09:45 038 0 gusting 4 27.8
2015-Aug-02 09:15 083 27.2
2015-Aug-02 09:00 014 26.1
2015-Aug-02 08:44 005 25.6
2015-Aug-02 08:29 028 0 gusting 4 25.0
2015-Aug-02 08:14 342 2 gusting 5 24.4
2015-Aug-02 07:59 294 23.9
2015-Aug-02 07:44 209 23.3
2015-Aug-02 07:29 125 23.9
2015-Aug-02 07:14 117 23.9
2015-Aug-02 06:59 117 22.2
2015-Aug-02 06:44 117 21.1
2015-Aug-02 06:29 117 20.0
2015-Aug-02 06:14 117 19.4
2015-Aug-02 05:59 117 18.9
2015-Aug-02 05:44 117 18.9
2015-Aug-02 05:29 117 18.9
2015-Aug-02 05:14 117 18.9
2015-Aug-02 04:59 117 18.9
2015-Aug-02 04:44 117 18.9
2015-Aug-02 04:29 117 19.4
2015-Aug-02 04:14 117 19.4
2015-Aug-02 03:59 117 19.4
2015-Aug-02 03:44 117 19.4
2015-Aug-02 03:28 115 19.4
2015-Aug-02 03:13 115 19.4
2015-Aug-02 02:58 115 19.4
2015-Aug-02 02:43 115 19.4
2015-Aug-02 02:28 115 19.4
2015-Aug-02 02:13 115 19.4
2015-Aug-02 01:58 115 19.4
2015-Aug-02 01:43 115 19.4
2015-Aug-02 01:28 115 20.0
2015-Aug-02 01:13 115 20.0
2015-Aug-02 00:58 115 20.0
2015-Aug-02 00:43 115 20.0
2015-Aug-02 00:28 115 20.0
2015-Aug-02 00:13 115 20.6
2015-Aug-01 23:58 096 20.6
2015-Aug-01 23:43 084 20.6
2015-Aug-01 23:28 082 21.1
2015-Aug-01 23:13 082 21.1
2015-Aug-01 22:58 064 21.7
2015-Aug-01 22:43 046 22.2
2015-Aug-01 22:28 046 22.8
2015-Aug-01 22:13 046 23.3
2015-Aug-01 21:58 046 23.9
2015-Aug-01 21:43 046 24.4
2015-Aug-01 21:28 046 25.0
2015-Aug-01 21:13 035 3 gusting 6 25.0
2015-Aug-01 20:58 136 6 gusting 16 25.0
2015-Aug-01 20:43 153 7 gusting 13 25.0
2015-Aug-01 20:28 139 7 gusting 13 25.6
2015-Aug-01 20:13 155 9 gusting 16 25.6
2015-Aug-01 19:58 163 6 gusting 14 25.6
2015-Aug-01 19:43 163 9 gusting 19 26.1
2015-Aug-01 19:28 211 11 gusting 15 26.7
2015-Aug-01 19:13 155 10 gusting 19 27.2
2015-Aug-01 18:57 156 11 gusting 19 27.8
2015-Aug-01 18:42 160 8 gusting 15 27.8
2015-Aug-01 18:27 147 7 gusting 15 28.3
2015-Aug-01 18:12 123 7 gusting 15 28.9
2015-Aug-01 17:57 157 6 gusting 14 29.4
2015-Aug-01 17:42 144 8 gusting 17 30.0
2015-Aug-01 17:27 151 10 gusting 17 30.0
2015-Aug-01 17:12 148 8 gusting 17 30.0
2015-Aug-01 16:57 098 5 gusting 13 31.1
2015-Aug-01 16:42 144 7 gusting 14 31.1
2015-Aug-01 16:27 130 6 gusting 14 31.1
2015-Aug-01 16:12 160 5 gusting 15 31.1
2015-Aug-01 15:58 173 9 gusting 14 31.7
2015-Aug-01 15:42 135 6 gusting 13 31.7
2015-Aug-01 15:27 111 6 gusting 13 31.7
2015-Aug-01 15:12 146 4 gusting 13 31.7
2015-Aug-01 14:57 178 10 gusting 13 31.7
2015-Aug-01 14:42 117 6 gusting 17 32.2
2015-Aug-01 14:27 198 5 gusting 15 31.1
2015-Aug-01 14:12 232 10 gusting 13 31.1
2015-Aug-01 13:57 184 11 gusting 19 30.6
2015-Aug-01 13:42 178 11 gusting 19 31.1
2015-Aug-01 13:27 193 6 gusting 15 31.1
2015-Aug-01 13:12 165 10 gusting 16 31.1
2015-Aug-01 12:57 229 7 gusting 13 31.1
2015-Aug-01 12:42 211 30.6
2015-Aug-01 12:27 342 1 gusting 6 30.6
2015-Aug-01 12:12 325 4 gusting 7 30.0
2015-Aug-01 11:57 335 1 gusting 7 29.4
2015-Aug-01 11:42 029 29.4
2015-Aug-01 11:27 088 28.3
2015-Aug-01 11:12 360 27.8
2015-Aug-01 10:57 032 27.8
2015-Aug-01 10:42 012 4 gusting 8 27.2
2015-Aug-01 10:27 279 0 gusting 6 26.7
2015-Aug-01 10:12 304 0 gusting 7 25.6
2015-Aug-01 09:57 296 25.0
2015-Aug-01 09:41 344 0 gusting 5 24.4
2015-Aug-01 09:26 342 24.4
2015-Aug-01 09:11 347 23.9
2015-Aug-01 08:56 350 23.3
2015-Aug-01 08:41 342 21.7
2015-Aug-01 08:26 347 21.7
2015-Aug-01 08:11 347 22.2
2015-Aug-01 07:56 005 21.7
2015-Aug-01 07:41 005 21.1
2015-Aug-01 07:26 005 20.0
2015-Aug-01 07:11 098 19.4
2015-Aug-01 06:56 153 19.4
2015-Aug-01 06:41 175 18.9
2015-Aug-01 06:26 162 18.3
2015-Aug-01 06:10 162 17.2
2015-Aug-01 05:55 162 16.7
2015-Aug-01 05:40 162 16.1
2015-Aug-01 05:25 162 16.7
2015-Aug-01 05:10 162 16.7
2015-Aug-01 04:55 162 16.7
2015-Aug-01 04:40 162 17.2
2015-Aug-01 04:25 162 17.2
2015-Aug-01 04:10 162 17.8
2015-Aug-01 03:55 162 17.8
2015-Aug-01 03:40 162 17.8
2015-Aug-01 03:25 169 18.3
2015-Aug-01 03:10 169 18.3
2015-Aug-01 02:55 169 18.9
2015-Aug-01 02:40 169 18.9
2015-Aug-01 02:25 169 18.9
2015-Aug-01 02:10 169 19.4
2015-Aug-01 01:55 169 19.4
2015-Aug-01 01:40 169 19.4
2015-Aug-01 01:25 169 19.4
2015-Aug-01 01:10 169 20.0
2015-Aug-01 00:55 169 20.0
2015-Aug-01 00:40 169 20.0
2015-Aug-01 00:25 169 20.0
2015-Aug-01 00:10 169 20.6
2015-Jul-31 23:55 169 21.1
2015-Jul-31 23:39 169 21.1
2015-Jul-31 23:24 169 22.2
2015-Jul-31 23:09 169 22.8
2015-Jul-31 22:54 169 22.8
2015-Jul-31 22:39 169 22.8
2015-Jul-31 22:24 146 22.8
2015-Jul-31 22:09 181 23.3
2015-Jul-31 21:54 221 1 gusting 4 23.3
2015-Jul-31 21:39 229 0 gusting 3 23.9
2015-Jul-31 21:24 250 24.4
2015-Jul-31 21:09 246 24.4
2015-Jul-31 20:54 250 25.0
2015-Jul-31 20:39 260 25.0
2015-Jul-31 20:24 255 5 gusting 8 25.6
2015-Jul-31 20:09 256 1 gusting 7 26.1
2015-Jul-31 19:54 274 6 gusting 10 26.1
2015-Jul-31 19:39 258 5 gusting 11 26.7
2015-Jul-31 19:24 254 3 gusting 10 27.2
2015-Jul-31 19:09 251 5 gusting 12 27.2
2015-Jul-31 18:54 257 3 gusting 8 28.3
2015-Jul-31 18:39 203 1 gusting 8 28.3
2015-Jul-31 18:24 184 5 gusting 10 28.9
2015-Jul-31 18:09 199 2 gusting 8 28.9